Home > Weather > Mamoutzou > Past weeks

Flag for Mayotte Past Weather in Mamoutzou, Mayotte — Yesterday and Last 2 Weeks

Now
77 °F

Warm.


Feels Like: 79 °F
Forecast: 75 / 79 °F
Wind: 3 mph from East

Location: Dzaoudzi / Pamanzi Mayotte

Current Time: Jul 26, 2016 at 10:57:24 PM

Latest Report: Jul 26, 2016 at 10:30 PM


Visibility: N/A

Pressure: 30.01 "Hg

Humidity: 74%

Dew Point: 68 °F

Location of MamoutzouLocation

Past Weather in Mamoutzou — Graph

°F

Mamoutzou Temperature Yesterday

Maximum temperature yesterday: 82 °F (at 10:00 AM)
Minimum temperature yesterday: 73 °F (at 12:00 AM)
Average temperature yesterday: 78 °F

High & Low Weather Summary for the Past Weeks

 TemperatureHumidityPressure
High82 °F (Jul 14, 11:30 AM)94% (Jul 16, 2:30 AM)30.12 "Hg (Jul 16, 2:30 AM)
Low68 °F (Jul 15, 1:00 AM)1% (Jul 14, 8:00 AM)29.95 "Hg (Jul 20, 2:30 PM)
Average77 °F70%30.04 "Hg
* Reported Jul 11 9:00 PM — Jul 26 9:30 PM, Mamoutzou, Weather by CustomWeather, © 2016

Note: Actual official high and low records may vary slightly from our data, if they occured in-between our weather recording intervals... More about our weather records

Advertising

Mamoutzou Weather History for the Previous 24 Hours

Scroll right to see more
 ConditionsComfort  
Time TempWeatherWind HumidityBarometerVisibility
9:30 PM
Tue, Jul 26
77 °FWarm.6 mph74%30.01 "HgN/A
9:00 PM77 °FWarm.5 mph74%30.01 "HgN/A
8:30 PM77 °FWarm.5 mph74%30.01 "HgN/A
8:00 PM77 °FWarm.5 mph74%30.01 "HgN/A
7:30 PM77 °FWarm.6 mph74%30.01 "HgN/A
7:00 PM77 °FWarm.8 mph74%30.01 "HgN/A
6:30 PM77 °FMostly cloudy.7 mph74%30.01 "HgN/A
6:00 PM77 °FPassing clouds.8 mph74%29.98 "HgN/A
5:30 PM77 °FPartly sunny.8 mph69%29.98 "HgN/A
5:00 PM79 °FPartly sunny.10 mph70%29.98 "HgN/A
4:30 PM79 °FBroken clouds.9 mph65%29.98 "HgN/A
4:00 PM81 °FBroken clouds.8 mph62%29.98 "HgN/A
3:30 PM81 °FPartly sunny.12 mph62%29.98 "HgN/A
3:00 PM81 °FPartly sunny.10 mph58%29.98 "HgN/A
2:30 PM81 °FPartly sunny.10 mph62%29.98 "HgN/A
2:00 PM81 °FPartly sunny.13 mph62%29.98 "HgN/A
1:30 PM81 °FScattered clouds.13 mph62%29.98 "HgN/A
1:00 PM81 °FScattered clouds.13 mph62%29.98 "HgN/A
12:30 PM81 °FScattered clouds.14 mph62%30.01 "HgN/A
12:00 PM81 °FScattered clouds.14 mph58%30.01 "HgN/A
11:34 AM82 °FPassing clouds.13 mph55%30.01 "HgN/A
11:00 AM81 °FPassing clouds.14 mph58%30.04 "HgN/A
10:30 AM81 °FPassing clouds.14 mph58%30.04 "HgN/A
10:00 AM81 °FScattered clouds.14 mph58%30.04 "HgN/A
9:00 AM79 °FScattered clouds.12 mph61%30.07 "HgN/A
8:30 AM79 °FScattered clouds.12 mph61%30.04 "HgN/A
8:04 AM79 °FScattered clouds.13 mph61%30.04 "HgN/A
7:30 AM77 °FScattered clouds.12 mph65%30.04 "HgN/A
7:00 AM75 °FScattered clouds.14 mph69%30.04 "HgN/A
6:34 AM75 °FScattered clouds.14 mph69%30.04 "HgN/A
6:00 AM75 °FPassing clouds.12 mph69%30.04 "HgN/A
5:30 AM75 °FPassing clouds.14 mph69%30.04 "HgN/A
5:00 AM73 °FPassing clouds.9 mph78%30.01 "HgN/A
4:30 AM72 °FPassing clouds.3 mph83%30.01 "HgN/A
4:00 AM72 °FMild.2 mph83%30.01 "HgN/A
3:30 AM73 °FMild.5 mph78%30.01 "HgN/A
3:00 AM73 °FMild.7 mph83%30.01 "HgN/A
2:30 AM72 °FMild.7 mph88%30.01 "HgN/A
2:00 AM73 °FMild.6 mph78%30.01 "HgN/A
1:30 AM73 °FMild.3 mph78%30.01 "HgN/A
1:00 AM75 °FMild.5 mph74%30.01 "HgN/A
12:30 AM75 °FMild.7 mph78%30.01 "HgN/A
12:00 AM75 °FMild.3 mph83%30.04 "HgN/A
11:30 PM
Mon, Jul 25
75 °FMild.6 mph83%30.04 "HgN/A
11:00 PM75 °FMild.8 mph83%30.04 "HgN/A
10:30 PM75 °FMild.5 mph83%30.04 "HgN/A
10:00 PM75 °FMild.3 mph83%30.04 "HgN/A
Weather by CustomWeather, © 2016

See weather overviewHow to use our weather pages